Regional Weather Roundup
Issued by NWS

Home | Current Version | Previous Version | Graphics & Text | Print | Product List | Glossary On
Versions: 1 2 3 4 5 6 7 8 9 10 11 12 13 14 15 16 17 18 19 20 21 22 23 24 25 26 27 28 29 30 31 32 33 34 35 36 37 38 39 40 41 42 43 44 45 46 47 48 49 50
204
ASUS45 KBOU 221107
RWRCO

WEATHER ROUNDUP FOR COLORADO
NATIONAL WEATHER SERVICE DENVER/BOULDER CO
500 AM MDT SAT JUL 22 2017

NOTE: "FAIR" INDICATES FEW OR NO CLOUDS BELOW 12000 FEET WITH NO
SIGNIFICANT WEATHER AND/OR OBSTRUCTIONS TO VISIBILITY.

COZ001>005-013-030-031-221200-
...NORTHWEST COLORADO...

CITY           SKY/WX    TMP DP  RH WIND       PRES   REMARKS
CRAIG          FAIR      53  50  89 CALM      30.29R
HAYDEN         FAIR      54  46  76 E8        30.30R
MEEKER         FAIR      55  52  89 E5        30.29R
RABBIT EARS PA FAIR      50  41  71 W9        30.55R
STEAMBOAT SPGS FAIR      50  48  95 CALM      30.32S
WALDEN         FAIR      46  45  93 SE6       30.41S
$$

COZ006>008-011-221200-
...WEST CENTRAL VALLEYS...

CITY           SKY/WX    TMP DP  RH WIND       PRES   REMARKS
GRAND JUNCTION FAIR      64  63  96 NE6       30.16F
MONTROSE       FAIR      61  57  87 CALM      30.24R
EAGLE          FAIR      58  57  97 CALM      30.33R
RIFLE          FAIR      60  56  86 SE3       30.22R
DELTA          FAIR      68  59  72 NW3       30.19S
NUCLA          FAIR      63  52  67 CALM      30.26R
$$

COZ017>023-064>068-221200-
...SOUTHWEST COLORADO...

CITY           SKY/WX    TMP DP  RH WIND       PRES   REMARKS
DURANGO        FAIR      58  54  86 NE5       30.25R
CORTEZ         FAIR      59  56  89 NE5       30.20R
PAGOSA SPRINGS FAIR      56  54  92 CALM      30.32S
TELLURIDE      FAIR      53  51  94 E3        30.43S
WOLF CREEK PAS FAIR      46  37  71 CALM      30.67S
$$

COZ009-010-012-014-032>034-037-058>063-221200-
...CENTRAL COLORADO...

CITY           SKY/WX    TMP DP  RH WIND       PRES   REMARKS
ASPEN          FAIR      55  50  83 CALM      30.35R
BUENA VISTA    FAIR      56  48  73 W5        30.36F
COPPER MTN     FAIR      54  37  54 W5        30.64S
BERTHOUD PASS  FAIR      41  28  60 NW20      30.66R
COTTONWOOD PAS FAIR      57  43  58 W8        30.48F
GUNNISON       FAIR      57  54  89 W8        30.35R
KREMMLING      FAIR      59  52  77 CALM      30.38R
LEADVILLE      FAIR      46  43  89 CALM      30.46F
MONARCH PASS   FAIR      50  37  62 CALM      30.73S
SALIDA         FAIR      62  49  62 CALM      30.41S
SUNLIGHT       FAIR      54  36  50 CALM      30.57S
WILKERSON PASS CLOUDY    52  37  58 W7        30.59S
$$

COZ069>075-221200-
...SAN LUIS VALLEY/SANGRE DE CRISTO MOUNTAINS...

CITY           SKY/WX    TMP DP  RH WIND       PRES   REMARKS
ALAMOSA        FAIR      53  50  89 SE3       30.31S
DEL NORTE      FAIR      58  46  65 W9        30.35S
LA VETA PASS   NOT AVBL
SAGUACHE         N/A    N/A N/A N/A MISG        N/A
$$

COZ035-036-038>040-221200-
...NORTHERN COLORADO FRONT RANGE...

CITY           SKY/WX    TMP DP  RH WIND       PRES   REMARKS
DENVER INTL AP FAIR      62  57  83 W5        30.12S
DMNS CITY PARK   N/A     62  59  90 SW5       30.12S
AURORA         MOCLDY    62  59  90 SW8       30.14S
FRONT RANGE AP FAIR      63  59  88 SW9       30.13S
ERIE MUNI ARPT FAIR      58  57  95 CALM      30.11S
BOULDER MUN AP FAIR      61  57  88 W3        30.13R
CENTENNIAL     MOCLDY    64  56  75 W8        30.15F
BROOMFIELD     FAIR      59  55  88 W5        30.15R
FORT COLLINS   FAIR      59  57  93 N6        30.12F
LONGMONT       FAIR      59  56  90 CALM      30.13S
$$

COZ041-046-047-076>085-087-088-221200-
...PIKES PEAK/PALMER DIVIDE AND SOUTHERN FOOTHILLS...

CITY           SKY/WX    TMP DP  RH WIND       PRES   REMARKS
COLO. SPRINGS  MOCLDY    64  56  75 SE8       30.19S
A. F. ACADEMY  CLOUDY    65  51  60 CALM      30.19S
SCHRIEVER AFB  MOCLDY    59  55  84 SE9       30.20R
CHEYENNE MTN   MOCLDY    67  46  46 S17       30.18S
ELLICOTT       FAIR     N/A N/A N/A SE7       30.18F
FALCON           N/A     63  50  64 S12       30.24R
FORT CARSON    CLOUDY    63  55  74 S8        30.16S
LIMON          FAIR      61  59  93 CALM      30.15R
MONUMENT HILL  FAIR      59  52  77 W10       30.24S
CANON CITY     CLEAR     70  57  64 W7        30.14S
WALSENBURG     NOT AVBL
TRINIDAD       FAIR      59  53  80 W5        30.20S
$$

COZ042>045-048>051-090-091-221200-
...NORTHEAST COLORADO...

CITY           SKY/WX    TMP DP  RH WIND       PRES   REMARKS
GREELEY ARPT   FAIR      61  59  93 CALM      30.11S
AKRON          FAIR      64  60  87 NW9       30.09R
BURLINGTON     FAIR      65  59  81 W7        30.03F
WRAY           NOT AVBL
YUMA           FAIR      63  54  72 W15       30.04R
STERLING       FAIR      66  61  82 NW6       30.04S
HOLYOKE        FAIR      73  61  64 NW12      30.02R
FORT MORGAN    FAIR      63  58  84 NW9       30.08S
$$

COZ086-089-092>099-221200-
...SOUTHEAST COLORADO...

CITY           SKY/WX    TMP DP  RH WIND       PRES   REMARKS
PUEBLO         FAIR      68  57  68 W3        30.11R
LA JUNTA       FAIR      68  56  65 SW7       30.10R
LAMAR          FAIR      65  58  78 SW7       30.03R
SPRINGFIELD      N/A     60  55  83 NW8       30.08S
$$




USA.gov is the U.S. government's official web portal to all federal, state and local government web resources and services.